Regional Weather Roundup
Issued by NWS

Home | Current Version | Previous Version | Graphics & Text | Print | Product List | Glossary On
Versions: 1 2 3 4 5 6 7 8 9 10 11 12 13 14 15 16 17 18 19 20 21 22 23 24 25 26 27 28 29 30 31 32 33 34 35 36 37 38 39 40 41 42 43 44 45 46 47 48 49 50
813
ASUS45 KTFX 020710
RWRMT
MONTANA REGIONAL WEATHER ROUNDUP
NATIONAL WEATHER SERVICE GREAT FALLS MT
100 AM MDT MON MAY 02 2016

NOTE: "FAIR" INDICATES FEW OR NO CLOUDS BELOW 12000 FEET WITH NO
SIGNIFICANT WEATHER AND/OR OBSTRUCTIONS TO VISIBILITY.

MTZ001>007-043-020800-
WEST OF THE DIVIDE

CITY           SKY/WX    TMP DP  RH WIND       PRES   REMARKS
KALISPELL      CLEAR     41  37  86 CALM      30.14R
MISSOULA       CLEAR     45  36  70 N3        30.16R
BUTTE          CLEAR     35  27  72 SE3       30.23S
MULLAN PASS    CLEAR     45  30  55 SE8       30.19S
ANACONDA         N/A     37  30  75 S5        30.21S
DEER LODGE       N/A     39  32  75 CALM      30.22R
EUREKA           N/A     45  37  76 CALM      30.14S
HAMILTON         N/A     45  36  70 SE3       30.15S
LIBBY            N/A     43  37  81 CALM      30.15R
PLAINS           N/A     43  36  76 CALM      30.13S
$$

MTZ008-052>055-020800-
SOUTHWEST MONTANA

CITY           SKY/WX    TMP DP  RH WIND       PRES   REMARKS
BOZEMAN        CLOUDY    42  28  57 CALM      30.21R
DILLON         CLEAR     41  29  62 S5        30.20R
ENNIS          CLEAR     36  28  75 NE5       30.26S
TWIN BRIDGES     N/A     46  23  40 N10       30.16S
$$

MTZ009-010-012-014-046-048-049-054-020800-
EAST SLOPES AND CENTRAL MONTANA

CITY           SKY/WX    TMP DP  RH WIND       PRES   REMARKS
CUT BANK       CLEAR     46  32  58 CALM      30.18F
GREAT FALLS    CLEAR     39  32  76 SW6       30.19R
HELENA         CLOUDY    45  34  65 CALM      30.19R
CHOTEAU          N/A     39  36  87 CALM      30.20S
CONRAD           N/A     36  34  92 CALM      30.19S
$$

MTZ011-013-016-021-045-047-050-051-020800-
NORTH CENTRAL MONTANA

CITY           SKY/WX    TMP DP  RH WIND       PRES   REMARKS
HAVRE          CLOUDY    42  37  82 SW5       30.17S
LEWISTOWN      CLEAR     37  29  72 S7        30.20F WCI  32
N BAR RANCH      N/A     36  30  80 W7        30.23F WCI  30
CHINOOK          N/A     46  39  76 CALM      30.17S
$$

MTZ017>020-022>027-061-062-020800-
NORTHEAST MONTANA

CITY           SKY/WX    TMP DP  RH WIND       PRES   REMARKS
GLASGOW        MOCLDY    50  35  56 W3        30.15S
JORDAN           N/A     41  37  86 W7        30.18S
SIDNEY         CLOUDY    54  30  40 W8        30.13S
WOLF POINT     CLOUDY    47  36  65 SW6       30.14F
PLENTYWOOD       N/A     52  34  50 W6        30.10S
POPLAR           N/A     46  36  66 SW3       30.14F
SCOBEY           N/A     48  30  50 W1        30.10S
$$

MTZ028>42-056>058-020800-
SOUTHCENTRAL AND SOUTHEAST MONTANA

CITY           SKY/WX    TMP DP  RH WIND       PRES   REMARKS
BAKER          CLOUDY    41  31  67 CALM      30.19F
BILLINGS       CLEAR     48  31  51 S6        30.21R
LIVINGSTON     CLOUDY    34  28  79 W3        30.22S
MILES CITY     PTCLDY    49  32  52 SW3       30.18F
EKALAKA          N/A     41  26  55 SE5       30.16F
FORSYTH          N/A     46  32  57 CALM      30.19F
LAUREL           N/A     45  28  51 CALM      30.17F
ROUNDUP          N/A     43  32  65 CALM      30.11S
$$

REGIONAL REPORTS...DAKOTAS

CITY           SKY/WX    TMP DP  RH WIND       PRES   REMARKS
WILLISTON      MOCLDY    52  34  50 W16       30.09F
MINOT          CLOUDY    59  28  30 SW13      30.05F
DICKINSON      CLEAR     37  28  70 SW5       30.12F
BEACH            N/A     41  32  70 SW12      30.19S
CROSBY         CLOUDY    54  32  43 W13       30.07S
TIOGA          CLOUDY    52  32  46 W14       30.11F
WATFORD CITY   CLOUDY    45  36  70 SW9       30.12S
BISMARCK       PTCLDY    44  33  65 CALM      30.13F
GRAND FORKS    CLOUDY    44  32  62 S6        30.08F
FARGO          PTCLDY    43  30  60 W6        30.10F
BUFFALO SD       N/A     41  30  65 W8        30.12F
RAPID CITY     CLEAR     36  29  75 W7        30.21F WCI  30
$$

REGIONAL REPORTS...WYOMING/IDAHO/WASHINGTON

CITY           SKY/WX    TMP DP  RH WIND       PRES   REMARKS
GILLETTE       CLEAR     32  29  88 S6        30.23F WCI  26
SHERIDAN       CLOUDY    35  30  82 SW5       30.21F
BUFFALO WY       N/A    N/A N/A N/A MISG      30.24F
CODY           CLEAR     37  28  70 CALM      30.24S
YELLOWSTONE LA   N/A     25  19  78 CALM      30.29S
IDAHO FALLS    CLEAR     45  24  43 CALM      30.17R
SALMON         CLEAR     39  28  65 CALM      30.16R
BOISE          PTCLDY    54  33  45 E6        30.08S
SPOKANE        CLEAR     59  38  45 NE3       30.06S
$$

REGIONAL REPORTS...ALBERTA

CITY           SKY/WX    TMP DP  RH WIND       PRES   REMARKS
EDMONTON       PTCLDY    57  37  47 W7        30.06S
CALGARY        CLEAR     48  30  49 SW5       30.15S
LETHBRIDGE     CLEAR     43  34  70 SW15      30.14S
MEDICINE HAT   CLEAR     45  39  81 SW7       30.13S
$$

REGIONAL REPORTS...SASKATCHEWAN

CITY           SKY/WX    TMP DP  RH WIND       PRES   REMARKS
SWIFT CURRENT  CLEAR     50  37  62 W12       30.10S
REGINA         CLEAR     43  32  65 W2        30.03F
SASKATOON      PTCLDY    52  32  46 CALM      30.03S
$$




USA.gov is the U.S. government's official web portal to all federal, state and local government web resources and services.